Location: La Fredeussais
(48.1780°N, 1.3980°W)
Time: 07:07:57
(UTC+00:00)

STARLINK-2695 - Pass Details

Date: 30 July 2021
Orbit: 546 x 548 km, 53.1° (Epoch: 19 September)

Event Time Altitude Azimuth Distance (km) Brightness Sun altitude
Rises 21:42:27 0° 284° (WNW) 2,718 8.0 -15.6°
Reaches altitude 10° 21:46:18 10° 248° (WSW) 1,818 6.4 -16.0°
Maximum altitude 21:47:25 11° 232° (SW) 1,756 6.2 -16.1°
Drops below altitude 10° 21:48:32 10° 217° (SW) 1,814 6.1 -16.2°
Enters shadow 21:49:11 - 208° (SSW) 1,901 6.1 -16.3°
